• în România
  • Lista ţărilor
  • Pe 7 zile
  • Temperatura apei
  • Hartă satelitară
  • Meteo pe hartă
  • Widget-uri
  • user-avatar
    Intrare

    Meteo pe oră la Quito

    Astăzi, 26 Aprilie, Miercuri

    Timp Temperatura Precipitaţii Vânt Presiune Umiditate
    00:00 +16°C° 0 mm 1 m/s 622 mmHg 88%
    01:00 +18°C° 0 mm 1 m/s 622 mmHg 88%
    02:00 +16°C° 0 mm 1 m/s 622 mmHg 89%
    03:00 +16°C° 0 mm 1 m/s 622 mmHg 91%
    04:00 +16°C° 0 mm 1 m/s 622 mmHg 93%
    05:00 +16°C° 0 mm 1 m/s 623 mmHg 93%
    06:00 +16°C° 0 mm 1 m/s 623 mmHg 93%
    07:00 +16°C° 0 mm 1 m/s 623 mmHg 93%
    08:00 +19°C° 0,1 mm 2 m/s 624 mmHg 83%
    09:00 +21°C° 0,1 mm 2 m/s 625 mmHg 73%
    10:00 +24°C° 0,1 mm 3 m/s 625 mmHg 63%
    11:00 +25°C° 0 mm 3 m/s 625 mmHg 59%
    12:00 +25°C° 0 mm 2 m/s 625 mmHg 55%
    13:00 +26°C° 0 mm 2 m/s 625 mmHg 51%
    14:00 +26°C° 0,1 mm 2 m/s 624 mmHg 52%
    15:00 +26°C° 0,1 mm 2 m/s 624 mmHg 54%
    16:00 +25°C° 0,1 mm 1 m/s 623 mmHg 56%
    17:00 +22°C° 0,1 mm 1 m/s 623 mmHg 67%
    18:00 +20°C° 0,1 mm 1 m/s 622 mmHg 78%
    19:00 +16°C° 0,1 mm 1 m/s 621 mmHg 89%
    20:00 +16°C° 0 mm 1 m/s 622 mmHg 89%
    21:00 +15°C° 0 mm 1 m/s 622 mmHg 89%
    22:00 +15°C° 0 mm 1 m/s 622 mmHg 89%
    23:00 +15°C° 0 mm 1 m/s 622 mmHg 90%

    Mâine, 27 Aprilie, Joi

    Timp Temperatura Precipitaţii Vânt Presiune Umiditate
    00:00 +15°C° 0 mm 1 m/s 622 mmHg 91%
    01:00 +15°C° 0 mm 1 m/s 622 mmHg 91%
    02:00 +14°C° 0 mm 1 m/s 622 mmHg 92%
    03:00 +14°C° 0 mm 1 m/s 622 mmHg 92%
    04:00 +14°C° 0 mm 1 m/s 621 mmHg 93%
    05:00 +15°C° 0 mm 1 m/s 622 mmHg 92%
    06:00 +15°C° 0 mm 1 m/s 623 mmHg 91%
    07:00 +16°C° 0 mm 1 m/s 623 mmHg 90%
    08:00 +18°C° 0 mm 2 m/s 624 mmHg 80%
    09:00 +20°C° 0 mm 3 m/s 625 mmHg 70%
    10:00 +22°C° 0 mm 4 m/s 626 mmHg 60%
    11:00 +24°C° 0 mm 3 m/s 626 mmHg 56%
    12:00 +26°C° 0 mm 3 m/s 625 mmHg 51%
    13:00 +27°C° 0 mm 3 m/s 625 mmHg 47%
    14:00 +26°C° 0 mm 3 m/s 625 mmHg 48%
    15:00 +26°C° 0 mm 3 m/s 624 mmHg 49%
    16:00 +26°C° 0 mm 2 m/s 624 mmHg 50%
    17:00 +23°C° 0 mm 2 m/s 623 mmHg 60%
    18:00 +19°C° 0 mm 2 m/s 622 mmHg 70%
    19:00 +18°C° 0 mm 1 m/s 622 mmHg 81%
    20:00 +16°C° 0 mm 1 m/s 622 mmHg 81%
    21:00 +16°C° 0 mm 1 m/s 623 mmHg 82%
    22:00 +15°C° 0 mm 1 m/s 623 mmHg 83%
    23:00 +15°C° 0 mm 1 m/s 623 mmHg 85%

    Poimâine, 28 Aprilie, Vineri

    Timp Temperatura Precipitaţii Vânt Presiune Umiditate
    00:00 +14°C° 0 mm 1 m/s 622 mmHg 87%
    01:00 +14°C° 0 mm 1 m/s 622 mmHg 88%
    02:00 +14°C° 0 mm 1 m/s 622 mmHg 90%
    03:00 +13°C° 0 mm 1 m/s 622 mmHg 92%
    04:00 +13°C° 0 mm 1 m/s 622 mmHg 93%
    05:00 +14°C° 0 mm 1 m/s 622 mmHg 91%
    06:00 +15°C° 0 mm 1 m/s 623 mmHg 89%
    07:00 +16°C° 0 mm 1 m/s 624 mmHg 87%
    08:00 +18°C° 0 mm 2 m/s 625 mmHg 76%
    09:00 +20°C° 0 mm 3 m/s 626 mmHg 66%
    10:00 +23°C° 0 mm 4 m/s 627 mmHg 55%
    11:00 +25°C° 0 mm 3 m/s 626 mmHg 51%
    12:00 +26°C° 0 mm 3 m/s 626 mmHg 47%
    13:00 +27°C° 0 mm 3 m/s 625 mmHg 43%
    14:00 +26°C° 0 mm 3 m/s 625 mmHg 44%
    15:00 +26°C° 0 mm 2 m/s 624 mmHg 45%
    16:00 +26°C° 0 mm 2 m/s 624 mmHg 46%
    17:00 +23°C° 0 mm 2 m/s 623 mmHg 57%
    18:00 +19°C° 0 mm 2 m/s 623 mmHg 67%
    19:00 +16°C° 0 mm 1 m/s 622 mmHg 77%
    20:00 +16°C° 0 mm 1 m/s 623 mmHg 78%
    21:00 +15°C° 0 mm 1 m/s 623 mmHg 80%
    22:00 +15°C° 0 mm 1 m/s 623 mmHg 81%
    23:00 +15°C° 0 mm 1 m/s 623 mmHg 81%

    29 Aprilie, Sâmbătă

    Timp Temperatura Precipitaţii Vânt Presiune Umiditate
    00:00 +15°C° 0 mm 1 m/s 623 mmHg 80%
    01:00 +15°C° 0 mm 1 m/s 623 mmHg 80%
    02:00 +15°C° 0 mm 1 m/s 623 mmHg 84%
    03:00 +14°C° 0 mm 1 m/s 623 mmHg 87%
    04:00 +14°C° 0 mm 1 m/s 623 mmHg 90%
    05:00 +14°C° 0 mm 1 m/s 624 mmHg 89%
    06:00 +15°C° 0 mm 1 m/s 624 mmHg 88%
    07:00 +15°C° 0 mm 1 m/s 625 mmHg 86%
    08:00 +18°C° 0 mm 2 m/s 626 mmHg 77%
    09:00 +20°C° 0 mm 3 m/s 627 mmHg 67%
    10:00 +22°C° 0 mm 4 m/s 627 mmHg 58%
    11:00 +23°C° 0 mm 4 m/s 627 mmHg 54%
    12:00 +25°C° 0 mm 3 m/s 626 mmHg 50%
    13:00 +26°C° 0 mm 3 m/s 626 mmHg 45%
    14:00 +25°C° 0 mm 3 m/s 625 mmHg 47%
    15:00 +25°C° 0 mm 3 m/s 625 mmHg 48%
    16:00 +25°C° 0 mm 3 m/s 624 mmHg 49%
    17:00 +21°C° 0 mm 2 m/s 624 mmHg 58%
    18:00 +19°C° 0 mm 2 m/s 624 mmHg 67%
    19:00 +16°C° 0 mm 2 m/s 623 mmHg 76%
    20:00 +16°C° 0 mm 1 m/s 623 mmHg 79%
    21:00 +15°C° 0 mm 1 m/s 623 mmHg 81%
    22:00 +15°C° 0 mm 1 m/s 624 mmHg 84%
    23:00 +14°C° 0 mm 1 m/s 623 mmHg 86%

    30 Aprilie, Duminică

    Timp Temperatura Precipitaţii Vânt Presiune Umiditate
    00:00 +14°C° 0 mm 1 m/s 623 mmHg 88%
    01:00 +13°C° 0 mm 1 m/s 623 mmHg 89%
    02:00 +13°C° 0 mm 1 m/s 623 mmHg 90%
    03:00 +13°C° 0 mm 1 m/s 622 mmHg 90%
    04:00 +13°C° 0 mm 1 m/s 622 mmHg 90%
    05:00 +13°C° 0 mm 1 m/s 623 mmHg 88%
    06:00 +14°C° 0 mm 1 m/s 624 mmHg 86%
    07:00 +15°C° 0 mm 1 m/s 625 mmHg 84%
    08:00 +17°C° 0 mm 2 m/s 625 mmHg 72%
    09:00 +20°C° 0 mm 3 m/s 626 mmHg 60%
    10:00 +22°C° 0 mm 4 m/s 627 mmHg 48%
    11:00 +23°C° 0 mm 4 m/s 626 mmHg 45%
    12:00 +23°C° 0 mm 4 m/s 625 mmHg 42%
    13:00 +25°C° 0 mm 3 m/s 625 mmHg 39%
    14:00 +25°C° 0 mm 3 m/s 625 mmHg 41%
    15:00 +24°C° 0 mm 3 m/s 624 mmHg 43%
    16:00 +24°C° 0 mm 3 m/s 624 mmHg 45%
    17:00 +20°C° 0 mm 2 m/s 624 mmHg 54%
    18:00 +18°C° 0 mm 2 m/s 623 mmHg 64%
    19:00 +15°C° 0 mm 2 m/s 623 mmHg 73%
    20:00 +15°C° 0 mm 2 m/s 623 mmHg 74%
    21:00 +15°C° 0 mm 1 m/s 623 mmHg 75%
    22:00 +14°C° 0 mm 1 m/s 623 mmHg 76%
    23:00 +14°C° 0 mm 1 m/s 623 mmHg 76%

    1 Mai, Luni

    Timp Temperatura Precipitaţii Vânt Presiune Umiditate
    00:00 +15°C° 0 mm 1 m/s 623 mmHg 77%
    01:00 +15°C° 0 mm 1 m/s 623 mmHg 77%
    02:00 +15°C° 0 mm 1 m/s 623 mmHg 78%
    03:00 +14°C° 0 mm 1 m/s 623 mmHg 80%
    04:00 +14°C° 0 mm 2 m/s 623 mmHg 81%
    05:00 +14°C° 0 mm 2 m/s 623 mmHg 80%
    06:00 +15°C° 0 mm 2 m/s 624 mmHg 79%
    07:00 +15°C° 0 mm 2 m/s 624 mmHg 78%
    08:00 +17°C° 0 mm 2 m/s 625 mmHg 67%
    09:00 +19°C° 0 mm 3 m/s 625 mmHg 56%
    10:00 +21°C° 0 mm 4 m/s 626 mmHg 44%
    11:00 +22°C° 0 mm 4 m/s 625 mmHg 42%
    12:00 +23°C° 0 mm 4 m/s 625 mmHg 40%
    13:00 +24°C° 0 mm 3 m/s 624 mmHg 38%
    14:00 +24°C° 0 mm 3 m/s 624 mmHg 39%
    15:00 +24°C° 0 mm 3 m/s 624 mmHg 41%
    16:00 +24°C° 0 mm 3 m/s 624 mmHg 43%
    17:00 +20°C° 0 mm 2 m/s 623 mmHg 52%
    18:00 +17°C° 0 mm 2 m/s 623 mmHg 61%
    19:00 +15°C° 0 mm 2 m/s 622 mmHg 70%
    20:00 +14°C° 0 mm 2 m/s 622 mmHg 72%
    21:00 +14°C° 0 mm 2 m/s 623 mmHg 74%
    22:00 +14°C° 0 mm 2 m/s 623 mmHg 75%
    23:00 +13°C° 0 mm 2 m/s 623 mmHg 78%
    Arată mai mult